TimeEDT,TemperatureF,Dew PointF,Humidity,Sea Level PressureIn,VisibilityMPH,Wind Direction,Wind SpeedMPH,Gust SpeedMPH,PrecipitationIn,Events,Conditions,WindDirDegrees,DateUTC
12:52 AM,26.1,21.9,84,29.78,10.0,Calm,Calm,-,N/A,,Mostly Cloudy,0,2013-03-27 04:52:00
1:52 AM,28.0,21.9,78,29.77,10.0,Calm,Calm,-,N/A,,Overcast,0,2013-03-27 05:52:00
2:52 AM,25.0,21.0,85,29.77,10.0,Calm,Calm,-,N/A,,Clear,0,2013-03-27 06:52:00
3:52 AM,23.0,18.0,81,29.77,10.0,Calm,Calm,-,N/A,,Clear,0,2013-03-27 07:52:00
4:52 AM,21.9,18.0,85,29.78,10.0,Calm,Calm,-,N/A,,Clear,0,2013-03-27 08:52:00
5:52 AM,21.0,17.1,85,29.78,10.0,Calm,Calm,-,N/A,,Clear,0,2013-03-27 09:52:00
6:52 AM,19.9,16.0,85,29.80,10.0,Calm,Calm,-,N/A,,Partly Cloudy,0,2013-03-27 10:52:00
7:52 AM,25.0,19.9,81,29.81,9.0,Calm,Calm,-,N/A,,Clear,0,2013-03-27 11:52:00
8:52 AM,33.1,24.1,70,29.82,10.0,Calm,Calm,-,N/A,,Mostly Cloudy,0,2013-03-27 12:52:00
9:52 AM,36.0,23.0,59,29.82,10.0,Calm,Calm,-,N/A,,Overcast,0,2013-03-27 13:52:00
10:52 AM,39.9,25.0,55,29.81,10.0,Variable,3.5,-,N/A,,Mostly Cloudy,0,2013-03-27 14:52:00
12:52 PM,41.0,25.0,53,29.81,10.0,NNW,9.2,-,N/A,,Overcast,340,2013-03-27 16:52:00
1:52 PM,41.0,26.1,55,29.81,10.0,WNW,9.2,-,N/A,,Overcast,290,2013-03-27 17:52:00
2:52 PM,39.9,27.0,60,29.82,10.0,WNW,9.2,-,N/A,,Overcast,300,2013-03-27 18:52:00
3:52 PM,39.0,28.9,67,29.83,10.0,NNE,6.9,-,N/A,,Overcast,30,2013-03-27 19:52:00
4:29 PM,39.2,30.2,70,29.80,10.0,West,3.5,-,0.00,Rain,Light Rain,280,2013-03-27 20:29:00
4:52 PM,37.9,30.0,73,29.84,10.0,WNW,4.6,-,0.00,Rain,Light Rain,290,2013-03-27 20:52:00
5:52 PM,37.0,30.9,79,29.87,10.0,North,4.6,-,0.00,,Overcast,10,2013-03-27 21:52:00
6:52 PM,36.0,30.9,82,29.89,8.0,NNW,4.6,-,0.00,Snow,Light Snow,330,2013-03-27 22:52:00
7:52 PM,34.0,32.0,92,29.91,8.0,Calm,Calm,-,0.01,Snow,Light Snow,0,2013-03-27 23:52:00
8:10 PM,33.8,32.0,93,29.86,5.0,Calm,Calm,-,0.01,Snow,Light Snow,0,2013-03-28 00:10:00
8:29 PM,33.8,32.0,93,29.87,5.0,Calm,Calm,-,0.01,Snow,Light Snow,0,2013-03-28 00:29:00
8:52 PM,34.0,32.0,92,29.91,7.0,Calm,Calm,-,0.01,Snow,Light Snow,0,2013-03-28 00:52:00
9:11 PM,33.8,32.0,93,29.88,5.0,Calm,Calm,-,0.00,Snow,Light Snow,0,2013-03-28 01:11:00
9:52 PM,34.0,30.9,89,29.92,2.5,Calm,Calm,-,0.02,Snow,Light Snow,0,2013-03-28 01:52:00
10:05 PM,33.8,30.2,87,29.88,3.0,Calm,Calm,-,0.00,Snow,Light Snow,0,2013-03-28 02:05:00
10:08 PM,33.8,30.2,87,29.88,3.0,Calm,Calm,-,0.00,Snow,Light Snow,0,2013-03-28 02:08:00
10:39 PM,33.8,30.2,87,29.88,4.0,Calm,Calm,-,0.00,Snow,Light Snow,0,2013-03-28 02:39:00
10:52 PM,34.0,32.0,92,29.91,3.0,Calm,Calm,-,0.01,Snow,Light Snow,0,2013-03-28 02:52:00
11:40 PM,33.8,32.0,93,29.87,5.0,Calm,Calm,-,0.00,Snow,Light Snow,0,2013-03-28 03:40:00
11:52 PM,34.0,32.0,92,29.91,5.0,Calm,Calm,-,0.00,Snow,Light Snow,0,2013-03-28 03:52:00